Location: Pasadena, ca
(34.1243°N, 118.1037°W)
Time: 21:01:58
(UTC-08:00)

Tiangong 2 - Pass Details

Date: 12 November 2017
Orbit: 386 x 391 km, 42.8° (Epoch: 18 November)

Event Time Altitude Azimuth Distance (km) Brightness Sun altitude
Rises 18:21:26 0° 294° (WNW) 2,271 5.9 -19.0°
Reaches altitude 10° 18:23:34 10° 288° (WNW) 1,413 4.8 -19.5°
Maximum altitude 18:26:38 46° 214° (SW) 530 2.0 -20.1°
Enters shadow 18:27:08 41° 183° (S) 571 1.9 -20.2°
